Gillette, WY

2:09 PM MDT on April 27, 2017 (GMT -0600)
Gillette-Campbell County

Weather History for KGCC - November, 2013

Change the Weather History Date:

Sunday, November 10, 2013

  Actual Average Record
Temperature  
Mean Temperature 45 °F 36 °F  
Max Temperature 63 °F 48 °F 69 °F (1999)
Min Temperature 27 °F 23 °F -18 °F (1986)
Degree Days  
Heating Degree Days 20 30  
Month to date heating degree days 265 276  
Since 1 July heating degree days 1083 1185  
Cooling Degree Days 0 0  
Month to date cooling degree days 0 0  
Year to date cooling degree days 615 502  
Moisture  
Dew Point 27 °F    
Average Humidity 60    
Maximum Humidity 92    
Minimum Humidity 27    
Precipitation  
Precipitation 0.00 in 0.02 in 0.70 in (1978)
Month to date precipitation 0.01 0.22  
Year to date precipitation 18.57 13.16  
Sea Level Pressure  
Sea Level Pressure 30.14 in    
Wind  
Wind Speed 6 mph (WSW)    
Max Wind Speed 20 mph    
Max Gust Speed 24 mph    
Visibility 10 miles    
Events      
T = Trace of Precipitation, MM = Missing Value Source: NWS Daily Summary

Daily Weather History Graph

Daily Weather History Graph

Search for Another Location

Airport or City:

Trip Planner

Search our weather history database for the weather conditions in past years. The results will help you decide how hot, cold, wet, or windy it might be!

Date:

Astronomy

Nov. 10, 2013 Rise Set
Actual Time 6:51 AM MST 4:39 PM MST
Civil Twilight 6:20 AM MST 5:10 PM MST
Nautical Twilight 5:45 AM MST 5:45 PM MST
Astronomical Twilight 5:11 AM MST 6:19 PM MST
Moon 1:01 PM MST (11/10) No Moon Set
Length of Visible Light 10h 50m
Length of Day
9h 48m
First Quarter, 56% of the Moon is Illuminated
Nov 10
First Quarter
Nov 17
Full
Nov 25
Last Quarter
Dec 2
New
Dec 9
First Quarter

Hourly Weather History & Observations

Time (MST) Temp. Windchill Dew Point Humidity Pressure Visibility Wind Dir Wind Speed Gust Speed Precip Events Conditions
12:53 AM 33.1 °F 22.6 °F 25.0 °F 72% 30.21 in 10.0 mi SSE 16.1 mph - N/A   Clear
1:53 AM 32.0 °F 22.5 °F 25.0 °F 75% 30.19 in 10.0 mi SSE 12.7 mph - N/A   Clear
2:53 AM 30.0 °F 22.4 °F 24.1 °F 79% 30.19 in 10.0 mi SSE 8.1 mph - N/A   Clear
3:53 AM 30.9 °F 20.7 °F 25.0 °F 79% 30.17 in 10.0 mi South 13.8 mph 23.0 mph N/A   Clear
4:53 AM 30.0 °F 21.1 °F 24.1 °F 79% 30.19 in 10.0 mi South 10.4 mph - N/A   Clear
5:53 AM 30.0 °F - 24.1 °F 79% 30.20 in 10.0 mi Calm Calm - N/A   Clear
6:53 AM 30.0 °F 21.1 °F 24.1 °F 79% 30.19 in 10.0 mi SSE 10.4 mph - N/A   Clear
7:53 AM 37.9 °F - 27.0 °F 65% 30.19 in 10.0 mi Calm Calm - N/A   Clear
8:53 AM 46.9 °F - 28.9 °F 50% 30.16 in 10.0 mi Calm Calm - N/A   Clear
9:53 AM 54.0 °F - 28.0 °F 37% 30.14 in 10.0 mi WSW 3.5 mph - N/A   Clear
10:53 AM 57.0 °F - 28.0 °F 33% 30.11 in 10.0 mi Calm Calm - N/A   Clear
11:53 AM 61.0 °F - 27.0 °F 27% 30.07 in 10.0 mi WSW 9.2 mph 18.4 mph N/A   Clear
12:53 PM 61.0 °F - 28.0 °F 29% 30.05 in 10.0 mi West 8.1 mph - N/A   Clear
1:53 PM 62.1 °F - 30.0 °F 30% 30.05 in 10.0 mi WSW 6.9 mph - N/A   Clear
2:53 PM 62.1 °F - 28.9 °F 29% 30.04 in 10.0 mi West 4.6 mph - N/A   Clear
3:53 PM 55.0 °F - 33.1 °F 43% 30.08 in 10.0 mi NNW 3.5 mph - N/A   Clear
4:53 PM 45.0 °F 43.5 °F 33.1 °F 63% 30.12 in 10.0 mi NNW 3.5 mph - N/A   Clear
5:53 PM 37.0 °F 34.5 °F 30.0 °F 76% 30.14 in 10.0 mi SW 3.5 mph - N/A   Clear
6:53 PM 36.0 °F - 30.0 °F 79% 30.16 in 10.0 mi Calm Calm - N/A   Clear
7:53 PM 36.0 °F - 28.9 °F 76% 30.14 in 10.0 mi Calm Calm - N/A   Clear
8:53 PM 32.0 °F 24.2 °F 27.0 °F 82% 30.15 in 10.0 mi North 9.2 mph - N/A   Clear
9:53 PM 28.9 °F 20.4 °F 26.1 °F 89% 30.14 in 10.0 mi NNW 9.2 mph - N/A   Clear
10:53 PM 27.0 °F 18.0 °F 25.0 °F 92% 30.18 in 10.0 mi NNW 9.2 mph 16.1 mph N/A   Clear
11:13 PM 26.6 °F 16.2 °F 24.8 °F 93% 30.17 in 9.0 mi North 11.5 mph - N/A   Mostly Cloudy
11:53 PM 28.0 °F 17.5 °F 25.0 °F 88% 30.19 in 9.0 mi North 12.7 mph - N/A   Overcast